Weather History for Greenville Downtown, SC

Change the Weather History Date:

Thursday, January 17, 2013

  Actual Average Record
Temperature  
Mean Temperature 46 °F -  
Max Temperature 53 °F 49 °F 64 °F (2002)
Min Temperature 39 °F 32 °F 15 °F (1997)
Degree Days  
Heating Degree Days 19    
Moisture  
Dew Point 46 °F    
Average Humidity 92    
Maximum Humidity 100    
Minimum Humidity 81    
Precipitation  
Precipitation 1.92 in - - ()
Sea Level Pressure  
Sea Level Pressure 29.92 in    
Wind  
Wind Speed 8 mph (NE)    
Max Wind Speed 26 mph    
Max Gust Speed 41 mph    
Visibility 5 miles    
Events Rain    
Averages and records for this station are not official NWS values.
T = Trace of Precipitation, MM = Missing Value Source: NWS Daily Summary

Daily Weather History Graph

Daily Weather History Graph

Search for Another Location

Airport:

Trip Planner

Search our weather history database for the weather conditions in past years. The results will help you decide how hot, cold, wet, or windy it might be!

Date:

Astronomy

Jan. 17, 2013 Rise Set
Actual Time 7:35 AM EST 5:43 PM EST
Civil Twilight 7:08 AM EST 6:10 PM EST
Nautical Twilight 6:37 AM EST 6:41 PM EST
Astronomical Twilight 6:07 AM EST 7:12 PM EST
Moon 10:59 AM EST (1/17) No Moon Set
Length of Visible Light 11h 02m
Length of Day
10h 07m
Waxing Crescent, 37% of the Moon is Illuminated
Jan 17
Waxing Crescent
Jan 18
First Quarter
Jan 26
Full
Feb 3
Last Quarter
Feb 10
New

Hourly Weather History & Observations

Time (EST) Temp. Windchill Dew Point Humidity Pressure Visibility Wind Dir Wind Speed Gust Speed Precip Events Conditions
12:53 AM 52.0 °F - 50.0 °F 93% 29.98 in 10.0 mi Calm Calm - 0.00 in   Overcast
1:00 AM 51.8 °F - 50.0 °F 94% 29.98 in 10.0 mi Calm Calm - N/A   Overcast
1:07 AM 51.8 °F - 48.2 °F 88% 29.98 in 8.0 mi Calm Calm - N/A   Overcast
1:16 AM 51.8 °F - 51.8 °F 100% 29.98 in 7.0 mi Calm Calm - N/A   Overcast
1:40 AM 51.8 °F - 50.0 °F 94% 29.98 in 8.0 mi Calm Calm - 0.00 in Rain Light Rain
1:53 AM 52.0 °F - 50.0 °F 93% 29.97 in 7.0 mi Calm Calm - 0.01 in Rain Light Rain
2:53 AM 52.0 °F - 50.0 °F 93% 29.96 in 7.0 mi North 3.5 mph - 0.01 in Rain Light Rain
3:24 AM 51.8 °F - 50.0 °F 94% 29.95 in 3.0 mi Calm Calm - 0.02 in Rain Light Rain
3:42 AM 51.8 °F - 50.0 °F 94% 29.95 in 5.0 mi Calm Calm - 0.03 in Rain Light Rain
3:53 AM 52.0 °F - 50.0 °F 93% 29.94 in 5.0 mi Calm Calm - 0.04 in Rain Light Rain
4:10 AM 51.8 °F - 50.0 °F 94% 29.94 in 6.0 mi Calm Calm - 0.00 in Rain Light Rain
4:21 AM 51.8 °F - 50.0 °F 94% 29.94 in 9.0 mi Calm Calm - 0.01 in Rain Light Rain
4:36 AM 51.8 °F - 50.0 °F 94% 29.94 in 5.0 mi Calm Calm - 0.03 in Rain Rain
4:53 AM 52.0 °F - 50.0 °F 93% 29.93 in 5.0 mi NE 3.5 mph - 0.06 in Rain Rain
5:04 AM 51.8 °F - 50.0 °F 94% 29.94 in 5.0 mi Calm Calm - 0.01 in Rain Light Rain
5:36 AM 51.8 °F - 50.0 °F 94% 29.92 in 3.0 mi NNE 5.8 mph - 0.04 in Rain Rain
5:51 AM 51.8 °F - 50.0 °F 94% 29.92 in 3.0 mi NNE 4.6 mph - 0.05 in Rain Rain
5:53 AM 52.0 °F - 50.0 °F 93% 29.92 in 3.0 mi NE 4.6 mph - 0.05 in Rain Light Rain
6:16 AM 51.8 °F - 50.0 °F 94% 29.93 in 3.0 mi NNE 4.6 mph - 0.05 in Rain Heavy Rain
6:23 AM 51.8 °F - 50.0 °F 94% 29.93 in 3.0 mi NNE 4.6 mph - 0.06 in Rain Rain
6:32 AM 51.8 °F - 50.0 °F 94% 29.92 in 3.0 mi NE 5.8 mph - 0.08 in Rain Rain
6:53 AM 52.0 °F - 50.0 °F 93% 29.93 in 3.0 mi NE 4.6 mph - 0.12 in Rain Rain
7:29 AM 51.8 °F - 51.8 °F 100% 29.93 in 6.0 mi ENE 3.5 mph - 0.03 in Rain Rain
7:42 AM 53.6 °F - 50.0 °F 88% 29.93 in 7.0 mi NE 8.1 mph - 0.03 in Rain Light Rain
7:50 AM 51.8 °F - 51.8 °F 100% 29.93 in 9.0 mi ESE 5.8 mph - 0.03 in Rain Light Rain
7:53 AM 52.0 °F - 51.1 °F 97% 29.93 in 10.0 mi East 5.8 mph - 0.03 in Rain Light Rain
8:06 AM 53.6 °F - 51.8 °F 94% 29.92 in 3.0 mi NE 9.2 mph - 0.01 in Rain Light Rain
8:20 AM 53.6 °F - 51.8 °F 94% 29.92 in 2.0 mi NE 12.7 mph - 0.01 in Rain Light Rain
8:28 AM 53.6 °F - 51.8 °F 94% 29.92 in 1.8 mi NE 12.7 mph - 0.01 in Rain Light Rain
8:35 AM 53.6 °F - 51.8 °F 94% 29.92 in 2.0 mi NE 15.0 mph - 0.02 in Rain Light Rain
8:53 AM 53.1 °F - 51.1 °F 93% 29.92 in 2.0 mi NE 13.8 mph - 0.05 in Rain Rain
9:12 AM 53.6 °F - 51.8 °F 94% 29.92 in 7.0 mi NE 13.8 mph - 0.03 in Rain Light Rain
9:44 AM 53.6 °F - 51.8 °F 94% 29.92 in 6.0 mi NE 15.0 mph 20.7 mph 0.04 in Rain Light Rain
9:53 AM 53.1 °F - 51.1 °F 93% 29.92 in 4.0 mi NE 13.8 mph 20.7 mph 0.05 in Rain Rain
10:08 AM 53.6 °F - 51.8 °F 94% 29.91 in 1.8 mi ENE 18.4 mph 23.0 mph 0.05 in Rain Heavy Rain
10:53 AM 52.0 °F - 50.0 °F 93% 29.86 in 3.0 mi NE 19.6 mph 28.8 mph 0.08 in Rain Light Rain
11:05 AM 51.8 °F - 50.0 °F 94% 29.86 in 2.0 mi NE 19.6 mph 27.6 mph 0.03 in Rain Heavy Rain
11:11 AM 51.8 °F - 50.0 °F 94% 29.85 in 3.0 mi NE 23.0 mph 31.1 mph 0.04 in Rain Light Rain
11:15 AM 51.8 °F - 50.0 °F 94% 29.86 in 1.8 mi NE 23.0 mph 31.1 mph 0.10 in Rain Heavy Rain
11:29 AM 51.8 °F - 50.0 °F 94% 29.85 in 3.0 mi NE 16.1 mph 25.3 mph 0.15 in Rain Light Rain
11:53 AM 51.1 °F - 48.9 °F 92% 29.83 in 5.0 mi NE 19.6 mph 28.8 mph 0.17 in Rain Rain
11:56 AM 51.8 °F - 48.2 °F 88% 29.82 in 1.0 mi NE 21.9 mph 29.9 mph 0.05 in Rain Rain
12:44 PM 51.8 °F - 48.2 °F 88% 29.78 in 7.0 mi NE 21.9 mph 29.9 mph 0.13 in Rain Light Rain
12:53 PM 51.1 °F - 48.0 °F 89% 29.76 in 5.0 mi NE 21.9 mph 32.2 mph 0.14 in Rain Light Rain
12:59 PM 51.8 °F - 48.2 °F 88% 29.76 in 2.0 mi NE 26.5 mph 34.5 mph 0.02 in Rain Heavy Rain
1:49 PM 50.0 °F - 46.4 °F 87% 29.73 in 1.0 mi NE 23.0 mph 38.0 mph 0.29 in Rain Heavy Rain
1:53 PM 50.0 °F - 46.9 °F 89% 29.75 in 1.0 mi NE 21.9 mph 35.7 mph 0.31 in Rain Heavy Rain
2:05 PM 50.0 °F - 46.4 °F 87% 29.76 in 2.0 mi NE 19.6 mph 28.8 mph 0.03 in Rain Rain
2:10 PM 50.0 °F - 46.4 °F 87% 29.76 in 2.5 mi NE 24.2 mph 29.9 mph 0.05 in Rain Rain
2:17 PM 48.2 °F - 46.4 °F 93% 29.76 in 2.0 mi NE 21.9 mph 34.5 mph 0.07 in Rain Heavy Rain
2:30 PM 48.2 °F - 46.4 °F 93% 29.78 in 3.0 mi NE 23.0 mph 34.5 mph 0.10 in Rain Rain
2:43 PM 48.2 °F - 44.6 °F 87% 29.80 in 1.8 mi NE 21.9 mph 32.2 mph 0.15 in Rain Heavy Rain
2:53 PM 48.0 °F - 46.0 °F 93% 29.81 in 1.8 mi NNE 16.1 mph 25.3 mph 0.20 in Rain Heavy Rain
3:00 PM 48.2 °F - 44.6 °F 87% 29.81 in 2.0 mi NNE 17.3 mph 28.8 mph 0.03 in Rain Heavy Rain
3:13 PM 46.4 °F 39.0 °F 44.6 °F 93% 29.79 in 1.8 mi NE 19.6 mph 33.4 mph 0.10 in Rain Heavy Rain
3:23 PM 46.4 °F 38.5 °F 44.6 °F 93% 29.79 in 2.5 mi NE 21.9 mph 33.4 mph 0.13 in Rain Rain
3:39 PM 46.4 °F 38.7 °F 44.6 °F 93% 29.80 in 3.0 mi NE 20.7 mph 27.6 mph 0.18 in Rain Heavy Rain
3:53 PM 46.0 °F 38.3 °F 44.1 °F 93% 29.78 in 2.5 mi NE 20.7 mph 26.5 mph 0.22 in Rain Heavy Rain
4:00 PM 46.4 °F 38.5 °F 44.6 °F 93% 29.77 in 2.5 mi NE 21.9 mph 32.2 mph 0.02 in Rain Heavy Rain
4:11 PM 46.4 °F 38.5 °F 44.6 °F 93% 29.76 in 2.5 mi NE 21.9 mph 35.7 mph 0.05 in Rain Rain
4:25 PM 46.4 °F 38.1 °F 42.8 °F 87% 29.77 in 5.0 mi NE 24.2 mph 33.4 mph 0.06 in Rain Light Rain
4:53 PM 46.0 °F 38.3 °F 43.0 °F 89% 29.79 in 10.0 mi NE 20.7 mph 41.4 mph 0.07 in Rain Light Rain
4:55 PM 46.4 °F 39.0 °F 42.8 °F 87% 29.79 in 10.0 mi NE 19.6 mph 41.4 mph 0.00 in Rain Light Rain
5:53 PM 46.0 °F 39.3 °F 42.1 °F 86% 29.86 in 9.0 mi NNE 16.1 mph - 0.00 in Rain Light Rain
6:22 PM 44.6 °F 37.4 °F 41.0 °F 87% 29.89 in 9.0 mi NNE 16.1 mph 31.1 mph 0.02 in Rain Rain
6:28 PM 44.6 °F 35.7 °F 39.2 °F 81% 29.91 in 9.0 mi NNE 24.2 mph 32.2 mph 0.03 in Rain Light Rain
6:53 PM 44.1 °F 35.4 °F 39.0 °F 82% 29.96 in 9.0 mi NNE 21.9 mph 32.2 mph 0.06 in Rain Rain
7:40 PM 42.8 °F 36.2 °F 39.2 °F 87% 30.04 in 3.0 mi North 12.7 mph - 0.09 in Rain Heavy Rain
7:53 PM 42.1 °F 36.1 °F 37.9 °F 85% 30.06 in 6.0 mi North 10.4 mph - 0.12 in Rain Rain
8:53 PM 41.0 °F 34.3 °F 37.9 °F 89% 30.12 in 10.0 mi NE 11.5 mph - 0.12 in Rain Light Rain
9:04 PM 41.0 °F 34.3 °F 37.4 °F 87% 30.11 in 10.0 mi NE 11.5 mph - 0.00 in Rain Light Rain
9:29 PM 39.2 °F 33.0 °F 37.4 °F 93% 30.13 in 10.0 mi NNE 9.2 mph - 0.01 in Rain Light Rain
9:40 PM 39.2 °F 32.5 °F 37.4 °F 93% 30.13 in 10.0 mi NE 10.4 mph - 0.01 in Rain Light Rain
9:53 PM 39.9 °F 33.9 °F 37.0 °F 89% 30.13 in 10.0 mi NE 9.2 mph - 0.01 in   Mostly Cloudy
10:09 PM 39.2 °F 34.2 °F 37.4 °F 93% 30.16 in 10.0 mi NNW 6.9 mph - N/A   Mostly Cloudy
10:41 PM 39.2 °F 35.9 °F 37.4 °F 93% 30.18 in 10.0 mi NNE 4.6 mph - N/A   Overcast
10:53 PM 39.9 °F 34.5 °F 37.0 °F 89% 30.19 in 10.0 mi NNE 8.1 mph - N/A   Overcast
11:15 PM 39.2 °F 33.6 °F 35.6 °F 87% 30.18 in 10.0 mi NNE 8.1 mph - N/A   Mostly Cloudy
11:24 PM 39.2 °F 35.0 °F 35.6 °F 87% 30.19 in 10.0 mi NE 5.8 mph - N/A   Scattered Clouds
11:53 PM 39.0 °F 36.8 °F 35.1 °F 86% 30.22 in 10.0 mi North 3.5 mph - N/A   Clear